This is the latest recevied weather packets stored in our database for station/object K1AWR. If no packets are shown the sender has not sent any weather packets the latest 10 day(s).
| Time | Temp. | Humidity | Pressure | Rain* | Wind** | Luminosity | Snow |
|---|---|---|---|---|---|---|---|
| 1778115237 | 15° C | 94% | 1007.4 hPa | 0 mm | - | 0 W/m² | - |
| 1778114934 | 15° C | 94% | 1007 hPa | 0 mm | - | 0 W/m² | - |
| 1778114631 | 15° C | 93% | 1007.2 hPa | 0 mm | - | 0 W/m² | - |
| 1778114328 | 15° C | 93% | 1007.3 hPa | 0 mm | - | 0 W/m² | - |
| 1778114024 | 15° C | 93% | 1007 hPa | 0 mm | - | 0 W/m² | - |
| 1778113719 | 15° C | 93% | 1007.3 hPa | 0 mm | - | 0 W/m² | - |
| 1778113415 | 15° C | 93% | 1007.1 hPa | 0 mm | - | 0 W/m² | - |
| 1778113113 | 15° C | 93% | 1007.3 hPa | 0 mm | - | 0 W/m² | - |
| 1778112809 | 15° C | 93% | 1007.3 hPa | 0 mm | - | 0 W/m² | - |
| 1778112506 | 15° C | 93% | 1007.4 hPa | 0 mm | - | 0 W/m² | - |
| 1778112201 | 15° C | 93% | 1007.4 hPa | 0 mm | - | 0 W/m² | - |
| 1778111898 | 15° C | 93% | 1007.2 hPa | 0 mm | - | 4 W/m² | - |
| 1778111594 | 15° C | 93% | 1007.2 hPa | 0 mm | - | 4 W/m² | - |
| 1778111291 | 15° C | 93% | 1007.3 hPa | 0 mm | - | 4 W/m² | - |
| 1778110989 | 15° C | 93% | 1007.2 hPa | 0 mm | - | 4 W/m² | - |
| 1778110686 | 15° C | 93% | 1007.2 hPa | 0 mm | - | 4 W/m² | - |
| 1778110382 | 15° C | 93% | 1007 hPa | 0 mm | - | 4 W/m² | - |
| 1778110079 | 15° C | 93% | 1007 hPa | 0 mm | - | 4 W/m² | - |
| 1778109774 | 15° C | 93% | 1006.8 hPa | 0 mm | - | 5 W/m² | - |
| 1778109471 | 15° C | 93% | 1006.8 hPa | 0 mm | - | 10 W/m² | - |
| 1778109170 | 15° C | 93% | 1006.6 hPa | 0 mm | - | 10 W/m² | - |
| 1778108866 | 15° C | 93% | 1006.6 hPa | 0 mm | - | 9 W/m² | - |
| 1778108563 | 15° C | 93% | 1006.6 hPa | 0 mm | - | 9 W/m² | - |
| 1778108259 | 15° C | 93% | 1006.5 hPa | 0 mm | - | 12 W/m² | - |
| 1778107957 | 15° C | 93% | 1006.6 hPa | 0 mm | - | 13 W/m² | - |
* Rain latest hour (hover to see other rain measurements)
** Current wind speed in m/s (hover to see current wind gust speed)